• In Italy
  • List of Countries
  • For 7 days
  • Water Temperature
  • Satellite Maps
  • Weather Map
  • Weather Widgets
  • user-avatar
    Login

    Hourly Weather Orange Walk

    Today, 13 December, Wednesday

    Time Temperature Precipitation Wind Pressure Humidity
    00:00 +18°C° 0 mm 1 mps 763 mmHg 87%
    01:00 +18°C° 0 mm 1 mps 763 mmHg 88%
    02:00 +16°C° 0 mm 1 mps 763 mmHg 90%
    03:00 +16°C° 0 mm 2 mps 763 mmHg 92%
    04:00 +15°C° 0 mm 2 mps 763 mmHg 92%
    05:00 +15°C° 0 mm 2 mps 763 mmHg 93%
    06:00 +15°C° 0 mm 2 mps 763 mmHg 94%
    07:00 +17°C° 0 mm 2 mps 764 mmHg 85%
    08:00 +19°C° 0 mm 2 mps 764 mmHg 75%
    09:00 +21°C° 0 mm 2 mps 765 mmHg 65%
    10:00 +24°C° 0 mm 1 mps 764 mmHg 59%
    11:00 +26°C° 0 mm 1 mps 764 mmHg 52%
    12:00 +28°C° 0 mm 1 mps 763 mmHg 46%
    13:00 +28°C° 0 mm 1 mps 762 mmHg 45%
    14:00 +28°C° 0 mm 1 mps 762 mmHg 44%
    15:00 +28°C° 0 mm 1 mps 761 mmHg 43%
    16:00 +26°C° 0 mm 1 mps 761 mmHg 51%
    17:00 +24°C° 0 mm 1 mps 761 mmHg 60%
    18:00 +21°C° 0 mm 1 mps 761 mmHg 68%
    19:00 +20°C° 0 mm 1 mps 761 mmHg 71%
    20:00 +20°C° 0 mm 1 mps 762 mmHg 74%
    21:00 +19°C° 0 mm 1 mps 762 mmHg 77%
    22:00 +19°C° 0 mm 1 mps 762 mmHg 79%
    23:00 +16°C° 0 mm 0 mps 761 mmHg 81%

    Tomorrow, 14 December, Thursday

    Time Temperature Precipitation Wind Pressure Humidity
    00:00 +16°C° 0 mm 0 mps 761 mmHg 83%
    01:00 +15°C° 0 mm 0 mps 761 mmHg 85%
    02:00 +15°C° 0 mm 0 mps 761 mmHg 87%
    03:00 +14°C° 0 mm 0 mps 760 mmHg 89%
    04:00 +14°C° 0 mm 0 mps 760 mmHg 91%
    05:00 +14°C° 0 mm 0 mps 760 mmHg 92%
    06:00 +14°C° 0 mm 0 mps 760 mmHg 93%
    07:00 +16°C° 0 mm 0 mps 761 mmHg 83%
    08:00 +19°C° 0 mm 0 mps 761 mmHg 72%
    09:00 +22°C° 0 mm 0 mps 761 mmHg 62%
    10:00 +25°C° 0 mm 1 mps 761 mmHg 57%
    11:00 +27°C° 0 mm 1 mps 761 mmHg 52%
    12:00 +28°C° 0 mm 2 mps 760 mmHg 47%
    13:00 +28°C° 0 mm 2 mps 759 mmHg 49%
    14:00 +28°C° 0 mm 2 mps 759 mmHg 51%
    15:00 +28°C° 0 mm 2 mps 758 mmHg 53%
    16:00 +26°C° 0 mm 2 mps 758 mmHg 63%
    17:00 +25°C° 0 mm 2 mps 758 mmHg 72%
    18:00 +23°C° 0 mm 2 mps 758 mmHg 82%
    19:00 +21°C° 0 mm 2 mps 759 mmHg 84%
    20:00 +21°C° 0 mm 2 mps 759 mmHg 87%
    21:00 +21°C° 0 mm 2 mps 760 mmHg 89%
    22:00 +21°C° 0 mm 2 mps 760 mmHg 90%
    23:00 +21°C° 0 mm 2 mps 759 mmHg 90%

    Day after tomorrow, 15 December, Friday

    Time Temperature Precipitation Wind Pressure Humidity
    00:00 +21°C° 0 mm 2 mps 759 mmHg 91%
    01:00 +21°C° 0 mm 2 mps 759 mmHg 91%
    02:00 +22°C° 0 mm 1 mps 759 mmHg 92%
    03:00 +22°C° 0 mm 1 mps 758 mmHg 93%
    04:00 +22°C° 0.1 mm 1 mps 758 mmHg 93%
    05:00 +22°C° 0.1 mm 1 mps 759 mmHg 94%
    06:00 +22°C° 0.1 mm 1 mps 759 mmHg 95%
    07:00 +24°C° 0 mm 2 mps 759 mmHg 91%
    08:00 +25°C° 0 mm 2 mps 760 mmHg 87%
    09:00 +26°C° 0 mm 2 mps 760 mmHg 82%
    10:00 +28°C° 0.1 mm 2 mps 760 mmHg 77%
    11:00 +29°C° 0.1 mm 2 mps 759 mmHg 71%
    12:00 +30°C° 0.1 mm 2 mps 759 mmHg 66%
    13:00 +30°C° 0 mm 2 mps 759 mmHg 64%
    14:00 +30°C° 0 mm 2 mps 758 mmHg 63%
    15:00 +31°C° 0 mm 2 mps 757 mmHg 62%
    16:00 +29°C° 0 mm 2 mps 758 mmHg 69%
    17:00 +27°C° 0 mm 2 mps 758 mmHg 76%
    18:00 +26°C° 0 mm 1 mps 758 mmHg 83%
    19:00 +25°C° 0 mm 1 mps 759 mmHg 85%
    20:00 +25°C° 0 mm 1 mps 759 mmHg 87%
    21:00 +24°C° 0 mm 1 mps 760 mmHg 90%
    22:00 +24°C° 0.1 mm 1 mps 760 mmHg 91%
    23:00 +24°C° 0.1 mm 1 mps 760 mmHg 93%

    16 December, Saturday

    Time Temperature Precipitation Wind Pressure Humidity
    00:00 +24°C° 0.1 mm 1 mps 759 mmHg 95%
    01:00 +23°C° 0.1 mm 1 mps 759 mmHg 96%
    02:00 +23°C° 0.1 mm 1 mps 759 mmHg 97%
    03:00 +23°C° 0.1 mm 1 mps 759 mmHg 99%
    04:00 +23°C° 0 mm 1 mps 759 mmHg 99%
    05:00 +23°C° 0 mm 1 mps 759 mmHg 99%
    06:00 +23°C° 0 mm 1 mps 760 mmHg 99%
    07:00 +24°C° 0.1 mm 1 mps 760 mmHg 94%
    08:00 +26°C° 0.1 mm 1 mps 761 mmHg 89%
    09:00 +27°C° 0.1 mm 1 mps 761 mmHg 84%
    10:00 +27°C° 0.8 mm 1 mps 761 mmHg 86%
    11:00 +27°C° 0.8 mm 1 mps 760 mmHg 87%
    12:00 +27°C° 0.8 mm 1 mps 760 mmHg 88%
    13:00 +27°C° 1 mm 2 mps 759 mmHg 89%
    14:00 +27°C° 1 mm 2 mps 759 mmHg 89%
    15:00 +27°C° 1 mm 2 mps 758 mmHg 90%
    16:00 +26°C° 0.3 mm 2 mps 758 mmHg 92%
    17:00 +26°C° 0.3 mm 2 mps 759 mmHg 95%
    18:00 +25°C° 0.3 mm 2 mps 759 mmHg 97%
    19:00 +25°C° 0.1 mm 2 mps 759 mmHg 98%
    20:00 +25°C° 0.1 mm 2 mps 760 mmHg 98%
    21:00 +24°C° 0.1 mm 2 mps 760 mmHg 98%
    22:00 +24°C° 0.3 mm 1 mps 760 mmHg 98%
    23:00 +24°C° 0.3 mm 1 mps 760 mmHg 98%

    17 December, Sunday

    Time Temperature Precipitation Wind Pressure Humidity
    00:00 +24°C° 0.3 mm 1 mps 760 mmHg 99%
    01:00 +24°C° 0.1 mm 1 mps 759 mmHg 98%
    02:00 +24°C° 0.1 mm 1 mps 759 mmHg 98%
    03:00 +24°C° 0.1 mm 1 mps 759 mmHg 98%
    04:00 +24°C° 0 mm 1 mps 759 mmHg 98%
    05:00 +24°C° 0 mm 1 mps 759 mmHg 98%
    06:00 +24°C° 0 mm 1 mps 759 mmHg 98%
    07:00 +25°C° 0.1 mm 2 mps 760 mmHg 94%
    08:00 +27°C° 0 mm 2 mps 760 mmHg 90%
    09:00 +28°C° 0 mm 3 mps 761 mmHg 87%
    10:00 +29°C° 0.1 mm 3 mps 760 mmHg 78%
    11:00 +30°C° 0.1 mm 3 mps 760 mmHg 70%
    12:00 +33°C° 0.1 mm 4 mps 759 mmHg 62%
    13:00 +31°C° 0.1 mm 3 mps 759 mmHg 62%
    14:00 +31°C° 0.1 mm 3 mps 758 mmHg 63%
    15:00 +31°C° 0.1 mm 3 mps 757 mmHg 63%
    16:00 +29°C° 0 mm 3 mps 758 mmHg 72%
    17:00 +27°C° 0 mm 2 mps 758 mmHg 81%
    18:00 +26°C° 0 mm 2 mps 758 mmHg 90%
    19:00 +25°C° 0.1 mm 2 mps 759 mmHg 93%
    20:00 +25°C° 0.1 mm 2 mps 759 mmHg 95%
    21:00 +25°C° 0.1 mm 2 mps 760 mmHg 98%
    22:00 +25°C° 0 mm 2 mps 759 mmHg 98%
    23:00 +25°C° 0 mm 2 mps 759 mmHg 98%

    18 December, Monday

    Time Temperature Precipitation Wind Pressure Humidity
    00:00 +24°C° 0 mm 2 mps 759 mmHg 98%
    01:00 +24°C° 0.1 mm 2 mps 759 mmHg 98%
    02:00 +24°C° 0.1 mm 2 mps 759 mmHg 98%
    03:00 +24°C° 0.1 mm 2 mps 758 mmHg 98%
    04:00 +24°C° 0 mm 2 mps 759 mmHg 98%
    05:00 +24°C° 0 mm 2 mps 759 mmHg 98%
    06:00 +24°C° 0 mm 2 mps 759 mmHg 98%
    07:00 +25°C° 0 mm 2 mps 760 mmHg 93%
    08:00 +27°C° 0 mm 2 mps 760 mmHg 88%
    09:00 +28°C° 0 mm 3 mps 761 mmHg 83%
    10:00 +29°C° 0.3 mm 3 mps 760 mmHg 77%
    11:00 +30°C° 0.3 mm 3 mps 760 mmHg 71%
    12:00 +32°C° 0.3 mm 4 mps 759 mmHg 65%
    13:00 +32°C° 0.3 mm 4 mps 759 mmHg 68%
    14:00 +30°C° 0.3 mm 4 mps 758 mmHg 71%
    15:00 +29°C° 0.3 mm 4 mps 758 mmHg 74%
    16:00 +28°C° 0.1 mm 3 mps 758 mmHg 80%
    17:00 +27°C° 0.1 mm 3 mps 758 mmHg 86%
    18:00 +26°C° 0.1 mm 2 mps 759 mmHg 92%
    19:00 +26°C° 0 mm 2 mps 759 mmHg 94%
    20:00 +25°C° 0 mm 2 mps 760 mmHg 96%
    21:00 +25°C° 0 mm 2 mps 760 mmHg 98%
    22:00 +25°C° 0 mm 2 mps 760 mmHg 98%
    23:00 +24°C° 0 mm 2 mps 760 mmHg 98%
    Show more